Terug naar catalogus

STARLINK-31789

ActiefCommunicatieVLEO
NORAD 59644·PAYLOAD·🇺🇸 United States

Gelanceerd May 3, 2024 vanaf Cape Canaveral Space Force Station

Loading…

Volgende Passages (komende 24 uur)

TLE

VersSource: CelesTrak SupGP

Epoch: Sep 15, 2026, 02:11 UTC

1 59644C 24082P   26258.09145833  .00023776  00000+0  86126-3 0  2588
2 59644  43.0000 150.0378 0001294 274.0315 314.3130 15.27563389    14

Volg STARLINK-31789 in realtime met AllMySat

Download on the App Store